Theta_e
342 332 330 330 328 325 321 319 303 306 308 299 299 302 297 305 304 303 303 304 303 307 308 308 307 308 307 308 309 310 312 310 313 306 307 327 336 337 340 342 343 344 345 347 348 350 351 348 348 348 349 350 350 350 349 349 349 348 348 348 348 347 347 348 348 347 345 345 345 346 346 345 345 343 343 342 341 340 340 340 339 339 339 339 339 339 339 339 339 341 346 346 343 343 342 339 339
333 328 329 328 326 323 314 313 306 301 303 298 297 300 299 303 304 302 301 305 307 308 309 309 310 310 311 311 310 310 313 317 318 320 325 329 338 337 340 341 342 342 345 347 348 347 350 349 347 349 349 349 350 349 348 348 348 347 347 347 348 347 347 347 347 346 345 344 345 346 346 345 344 343 342 340 341 341 340 339 339 339 339 339 339 338 339 338 345 345 345 345 345 343 340 339 338
330 327 326 325 323 318 316 312 302 301 299 295 297 299 303 301 302 303 305 307 308 310 310 310 311 310 308 309 308 307 308 320 321 326 323 331 330 334 340 341 342 344 344 348 347 348 347 348 345 348 349 349 349 348 348 347 347 347 347 346 347 347 347 347 346 345 344 345 346 345 345 344 344 342 340 339 339 340 340 339 338 338 339 338 339 338 341 345 345 345 345 344 343 342 342 340 339
329 330 325 325 317 317 310 308 305 301 298 297 296 300 302 302 302 306 308 308 309 310 309 307 307 310 310 306 308 309 310 314 324 321 319 327 335 338 341 340 342 344 347 348 347 348 348 346 346 348 348 349 349 349 348 347 347 347 346 346 346 346 347 347 347 345 344 345 345 344 345 345 344 343 339 338 338 339 339 339 338 338 338 339 338 339 342 343 343 343 343 343 342 341 341 340 339
328 328 324 322 318 311 311 306 303 303 297 300 296 300 302 303 303 306 307 308 308 308 308 308 308 312 315 312 310 309 311 316 320 326 329 334 339 339 340 342 342 342 345 347 347 348 349 342 345 348 347 348 347 348 348 347 346 345 346 346 346 346 346 347 347 345 344 344 345 345 344 344 344 342 339 337 337 339 339 338 338 337 338 338 338 340 342 343 343 343 342 342 342 340 339 339 338
324 324 329 322 315 314 309 303 302 299 301 303 299 301 303 304 304 306 306 308 307 308 308 308 308 306 309 312 315 315 318 310 319 322 330 334 337 339 339 341 340 343 346 346 347 348 349 340 343 347 348 347 346 346 347 347 347 346 345 345 345 345 346 346 346 346 345 344 345 344 344 344 344 340 338 337 337 339 339 338 338 337 337 337 337 338 338 341 342 341 342 341 341 339 338 337 337
323 321 318 318 316 317 306 302 300 300 300 304 302 302 303 305 306 306 306 305 307 307 308 307 309 309 307 311 314 323 325 326 320 331 336 337 338 338 339 340 341 342 346 346 347 350 349 341 345 346 347 346 345 346 347 347 346 346 345 345 345 345 345 346 346 346 345 345 345 344 344 343 342 340 337 336 337 338 338 338 337 337 336 337 336 336 337 337 338 340 339 338 337 337 335 335 335
323 318 316 310 308 309 304 302 301 304 300 304 304 304 304 305 306 306 305 304 303 305 306 307 309 309 308 314 308 319 322 328 330 333 335 336 339 339 340 340 341 342 344 346 347 348 344 340 344 344 345 346 346 346 346 347 346 345 345 344 345 345 345 346 346 345 345 344 344 344 343 342 341 339 337 337 337 338 338 337 337 336 336 335 335 335 335 335 336 337 336 336 335 334 334 334 334
320 316 320 314 305 307 302 302 301 303 301 303 303 305 309 306 306 306 304 306 306 306 306 307 309 304 305 308 314 317 320 325 329 332 334 336 337 340 340 341 340 342 343 345 347 349 349 337 342 344 344 345 346 346 345 346 346 345 344 344 345 346 346 346 345 345 345 344 344 343 343 342 342 340 337 337 338 338 337 337 336 336 335 335 335 334 334 335 335 335 335 334 333 333 333 333 333
316 315 306 309 309 302 301 300 301 302 301 303 303 303 305 305 305 306 305 303 304 305 307 310 308 304 306 305 308 316 318 324 331 332 334 336 337 339 340 341 342 343 344 344 346 347 348 341 339 343 343 343 344 346 345 345 346 345 345 345 345 346 346 346 345 345 345 344 343 343 342 342 341 339 337 336 336 337 336 336 336 335 336 335 335 334 333 332 332 333 332 331 331 331 332 332 332
309 312 317 307 302 301 301 300 302 302 302 303 304 305 306 306 305 304 305 304 306 305 308 308 305 305 305 307 312 317 320 325 328 330 334 335 338 339 338 343 344 344 345 347 347 348 348 347 338 339 341 342 343 344 345 345 346 345 345 345 345 345 346 345 345 344 344 343 343 343 342 342 341 338 336 335 334 334 334 335 335 335 335 335 334 334 333 331 332 331 329 329 329 330 330 331 331
308 307 311 303 302 302 301 301 301 302 303 303 302 304 306 305 306 303 303 302 304 305 305 307 305 308 304 306 311 315 320 324 331 333 333 336 336 338 339 341 343 343 345 346 347 348 348 347 344 339 336 339 339 341 343 344 346 346 346 346 345 345 346 345 345 344 343 343 343 342 341 341 340 338 336 334 332 332 333 334 334 334 334 333 333 333 331 330 329 327 326 326 327 329 330 330 330
311 313 305 303 303 302 303 301 301 301 302 301 302 304 307 305 303 304 304 304 305 304 305 308 311 307 303 304 312 316 318 326 332 331 334 335 336 337 340 340 340 342 344 344 345 345 347 347 347 345 340 332 334 337 338 340 342 346 347 346 346 345 345 345 344 343 341 342 341 341 340 340 339 337 336 334 332 331 331 332 332 333 333 333 332 331 329 328 326 325 324 326 328 329 329 329 329
313 314 310 304 304 302 301 303 302 300 300 303 305 305 306 304 305 306 306 303 304 304 307 310 308 309 306 307 309 311 318 330 330 331 333 335 335 336 337 338 340 339 342 343 341 343 344 345 346 346 346 344 345 337 331 334 338 343 345 345 344 345 345 345 344 343 342 341 340 340 339 338 338 336 335 333 332 330 330 330 331 331 331 331 330 329 328 327 326 324 325 327 328 328 328 328 327
313 313 308 307 302 301 304 300 300 300 301 304 304 304 304 306 306 305 305 303 304 308 309 309 311 306 303 304 306 310 323 329 330 330 332 333 334 336 336 336 336 338 338 339 340 340 341 342 343 345 346 346 346 346 346 341 331 337 340 341 341 343 343 342 341 341 340 339 338 336 335 333 333 332 332 332 331 330 329 328 330 330 331 331 330 329 328 327 325 326 326 326 326 326 325 325 324
318 311 307 303 300 300 302 302 303 301 301 304 304 305 304 305 306 304 305 305 307 311 308 305 310 306 307 308 313 323 327 329 329 330 331 332 333 333 334 334 333 336 337 338 339 340 338 338 341 342 343 345 345 345 346 345 334 329 337 339 339 341 339 338 338 338 334 332 331 331 329 332 329 330 326 330 328 329 327 326 328 329 329 329 329 328 327 326 325 324 324 324 323 322 321 320 320
314 316 302 301 300 300 302 301 302 299 303 304 304 304 302 303 305 306 305 307 305 306 306 310 307 310 309 310 313 325 326 327 327 328 330 330 330 330 332 332 332 332 333 335 336 337 338 337 338 340 341 342 344 345 345 343 341 332 332 329 332 335 335 335 333 328 325 324 326 325 328 335 333 333 333 331 324 329 321 322 326 327 327 327 326 325 325 323 322 321 322 321 320 319 316 315 315
313 304 302 300 302 300 305 302 303 305 303 303 303 304 304 302 304 305 307 305 306 307 306 309 310 309 312 311 313 322 325 325 327 326 327 327 329 329 329 330 330 329 330 331 333 334 336 336 337 338 339 341 341 343 344 344 343 336 344 342 342 336 330 328 335 341 335 340 328 333 338 335 334 335 333 329 329 328 325 321 323 326 326 325 323 323 323 321 321 320 320 318 317 317 319 316 315
307 304 304 300 303 304 306 305 306 304 304 305 304 305 305 304 305 306 303 304 304 304 305 307 307 309 311 311 312 319 323 325 325 326 326 326 327 327 327 329 329 330 330 330 331 333 334 334 335 336 337 340 341 341 343 344 343 342 343 341 341 336 338 340 343 341 341 342 340 339 336 337 337 334 333 330 329 322 325 321 323 325 325 324 322 322 321 320 319 319 318 316 315 318 315 315 314
306 307 299 300 306 304 306 306 304 305 306 304 304 304 305 306 306 308 303 304 305 303 303 305 306 306 309 310 311 317 322 324 325 325 325 326 327 328 327 327 328 329 330 331 331 330 333 333 332 332 335 338 339 340 341 341 343 343 341 343 341 341 341 342 342 341 341 340 340 338 338 337 337 333 324 323 323 327 324 320 319 320 320 320 319 319 319 318 318 316 316 316 317 313 313 311 312
307 302 301 303 304 303 303 305 305 304 306 305 305 304 303 305 306 306 304 302 303 305 307 306 306 307 310 312 312 315 319 321 323 325 325 325 327 329 329 329 329 330 331 333 332 329 331 331 331 332 333 336 338 338 339 340 341 344 341 341 340 342 340 342 341 340 340 340 340 339 339 338 337 333 331 328 328 327 326 325 323 322 320 318 316 316 315 316 317 316 314 314 312 311 310 309 310
306 302 302 304 304 303 303 304 303 304 304 305 305 302 303 307 305 304 305 301 302 305 307 309 309 309 310 312 313 315 316 319 321 322 325 325 325 325 328 330 330 331 329 327 328 330 330 330 331 331 332 335 337 337 338 339 340 341 342 342 341 341 341 340 339 340 341 341 341 340 338 336 337 333 331 331 328 326 325 324 324 322 320 319 318 317 318 317 315 313 312 310 308 308 307 307 307
301 302 303 304 304 303 303 303 301 303 304 304 303 305 306 303 304 305 305 304 306 307 309 310 310 311 315 315 315 315 315 318 320 321 323 325 325 325 326 328 325 326 326 326 329 329 329 329 330 330 331 334 336 337 337 339 340 341 340 342 340 339 342 341 341 339 339 339 341 339 338 337 335 334 333 332 329 327 325 324 324 323 321 319 319 318 317 315 312 310 309 307 307 306 306 306 305
304 301 303 302 304 303 303 303 301 302 304 304 306 306 303 304 301 306 304 307 308 310 311 311 310 308 312 315 315 315 316 317 319 320 323 325 326 326 327 326 327 328 327 328 328 327 326 327 328 329 331 332 334 336 336 337 338 338 338 338 340 339 339 339 341 340 340 339 339 337 337 337 337 334 333 333 330 328 326 325 323 322 321 320 319 317 314 312 310 308 307 306 305 304 303 303 303
303 301 303 302 304 304 303 303 302 302 303 304 304 302 303 304 304 303 303 306 308 309 310 309 310 309 308 312 314 314 315 317 318 320 322 324 327 328 328 327 326 326 325 326 328 327 327 328 327 327 329 329 331 334 334 335 336 336 335 337 336 333 339 340 340 339 339 339 340 338 338 336 336 336 334 333 332 329 327 325 323 321 320 318 316 314 314 309 307 306 305 304 303 302 302 301 301
305 303 303 303 304 304 303 302 303 303 304 304 302 303 304 304 304 302 305 306 309 310 309 309 309 308 308 310 313 314 315 316 319 319 320 323 325 325 324 324 323 323 324 326 326 326 327 326 325 326 327 327 328 329 331 333 334 335 334 334 336 329 334 337 339 338 338 338 337 338 338 337 337 337 335 334 332 331 328 326 324 322 320 316 314 311 309 308 306 305 304 303 302 301 299 299 299
305 304 304 304 304 303 303 304 303 303 305 304 302 303 304 304 303 301 309 309 309 308 308 309 308 308 308 309 310 313 315 316 318 320 320 320 319 320 321 322 322 322 323 324 324 323 324 323 323 324 325 325 328 328 329 331 333 333 333 333 332 333 334 333 336 337 337 337 336 337 338 337 336 337 336 335 332 327 325 322 320 318 317 316 313 313 312 309 306 303 302 301 300 299 298 298 298
305 305 304 304 304 305 304 304 303 304 303 303 304 303 304 304 303 302 308 308 308 308 308 309 308 308 309 309 310 313 314 317 319 319 318 317 317 318 320 321 321 321 322 321 321 322 321 321 321 322 322 324 325 327 329 330 331 332 332 331 330 332 333 332 333 334 332 334 336 336 336 334 332 332 330 328 326 323 320 319 318 316 314 314 313 312 311 306 304 303 302 301 300 299 297 297 297
304 305 301 303 304 303 304 303 304 304 303 304 305 302 301 302 300 306 308 307 308 308 308 308 309 308 310 311 310 312 313 315 318 318 317 318 319 320 320 321 321 320 320 320 320 319 319 319 319 320 321 322 323 326 327 328 330 331 329 329 329 328 330 331 332 332 332 333 333 334 334 333 331 329 329 326 321 321 319 317 315 313 312 311 310 308 305 303 301 300 300 299 298 297 297 296 298
305 304 303 301 301 301 304 305 304 302 304 304 304 294 300 303 304 307 308 307 307 307 307 308 309 309 309 311 311 311 312 313 315 316 317 318 319 320 320 321 321 320 319 320 319 318 318 319 319 320 320 320 323 325 326 326 328 329 329 329 328 327 327 327 329 330 330 329 330 332 332 331 330 329 327 326 323 321 318 315 313 311 311 309 307 304 302 301 299 299 298 297 297 296 295 295 295
302 303 303 299 299 298 303 304 303 301 303 303 304 295 298 303 306 308 308 307 306 305 306 307 308 309 309 310 310 310 311 313 313 315 316 318 319 320 320 320 320 320 318 318 317 317 317 317 317 317 318 320 321 323 324 325 327 327 327 327 326 327 325 325 323 322 322 324 327 329 331 330 330 329 328 325 323 320 316 313 311 310 310 308 307 305 302 300 300 298 297 297 297 296 296 295 295
303 297 295 300 297 300 301 303 303 300 301 304 302 296 298 302 305 306 306 306 306 305 306 308 308 309 309 309 310 310 310 313 313 313 315 317 318 317 318 319 318 318 317 316 316 317 316 316 316 317 318 318 319 320 322 324 324 325 325 320 322 323 322 320 319 320 319 320 322 322 322 325 331 328 327 325 320 317 315 311 310 309 308 307 305 303 302 299 299 299 298 298 295 294 294 294 295
301 297 299 298 298 298 299 300 303 302 302 303 301 297 300 301 305 305 304 306 305 305 306 308 308 309 309 309 309 309 310 311 312 312 313 315 316 316 316 317 316 316 316 316 315 315 315 315 315 316 315 316 317 319 319 318 321 323 321 321 320 317 315 316 317 318 319 319 318 319 319 319 321 325 324 322 316 315 313 311 310 308 308 307 305 302 301 301 299 299 298 298 296 294 294 294 294
297 300 296 300 297 297 295 299 302 303 302 299 302 298 299 302 304 306 305 306 306 305 305 306 307 308 309 309 309 309 309 310 310 311 312 313 314 314 315 315 316 315 315 315 315 314 314 315 314 315 315 317 317 317 315 316 316 317 317 314 313 313 312 312 312 315 317 317 317 316 317 317 318 316 317 316 314 313 312 311 311 310 309 307 304 303 301 300 299 298 297 297 296 294 293 293 293
296 297 295 296 297 296 296 297 299 301 300 299 300 299 299 302 304 305 306 307 306 306 306 306 307 307 308 308 308 309 309 309 310 312 312 312 313 313 314 315 315 314 314 314 314 314 314 315 314 314 314 316 315 314 312 311 311 311 311 311 310 310 310 309 310 311 313 315 316 315 314 315 315 316 316 314 313 312 311 310 310 310 308 306 304 301 300 299 299 298 297 295 296 296 294 294 294
296 298 297 297 296 296 296 298 300 301 299 298 298 297 298 301 303 305 306 307 306 306 307 307 307 307 308 308 309 309 309 309 312 313 314 312 312 313 313 314 314 314 313 313 313 314 314 314 314 313 313 314 313 311 310 309 309 310 310 308 308 307 307 306 307 308 309 311 313 313 314 314 314 314 315 314 312 311 310 310 309 309 307 305 302 300 299 299 297 296 296 296 295 295 296 295 294
298 298 297 295 296 297 299 300 301 301 298 298 299 299 299 300 302 304 305 306 306 306 306 306 307 307 307 308 308 309 310 310 315 314 314 312 312 312 313 313 313 313 313 312 312 312 313 312 312 311 312 312 311 310 309 309 309 307 308 309 307 305 305 304 304 305 306 306 308 308 309 311 314 314 314 315 313 310 311 311 310 309 308 305 303 301 300 299 297 297 297 297 295 293 293 294 294
297 297 297 296 299 295 298 299 300 302 297 297 300 299 300 301 303 304 305 305 304 305 305 306 307 307 308 308 309 310 310 314 315 313 312 312 311 312 312 312 311 310 311 311 311 312 313 312 312 311 311 310 310 311 309 310 311 310 309 308 306 304 302 303 302 303 303 303 304 305 306 308 310 312 313 314 315 313 312 311 309 308 307 305 304 303 300 299 299 298 298 296 296 294 292 294 294
298 297 298 296 297 300 301 301 300 300 298 296 299 298 299 301 303 305 305 305 305 307 307 307 307 307 308 309 309 310 311 312 312 312 311 310 311 311 311 312 312 311 311 311 312 312 312 311 311 311 311 309 310 311 311 311 312 313 311 307 306 301 301 302 303 301 301 302 305 302 303 306 308 310 312 313 314 314 312 310 307 306 306 305 303 301 300 299 298 297 297 296 294 295 294 296 295
298 297 296 294 301 295 293 299 299 300 298 297 298 296 298 301 303 303 305 305 306 308 308 308 309 308 308 308 309 310 310 312 311 310 309 309 310 310 310 311 311 311 311 310 311 311 311 311 311 311 310 310 309 310 310 313 307 304 303 303 303 303 299 298 300 300 301 300 300 301 301 304 307 308 310 311 311 311 310 308 307 306 305 305 303 300 299 298 298 297 298 297 296 292 293 294 297
299 299 298 296 298 298 296 296 300 300 301 299 299 298 298 301 300 302 305 307 307 307 308 309 310 311 311 313 313 312 311 311 312 311 309 308 308 308 309 310 311 310 310 310 311 311 310 311 311 311 310 310 310 309 308 303 302 301 300 299 299 298 298 298 298 299 300 300 299 299 299 300 303 306 308 309 309 309 309 308 306 306 305 305 304 301 299 299 299 298 298 297 296 294 293 294 295
297 300 299 298 298 297 298 300 298 296 295 298 299 291 293 301 301 303 306 306 305 307 307 307 308 310 311 309 310 312 313 313 312 312 310 308 308 308 309 310 310 310 310 311 311 311 311 311 311 311 310 311 310 307 305 304 302 301 300 299 298 299 297 297 298 299 299 299 300 300 298 298 300 303 305 307 307 307 307 308 307 306 305 304 304 302 301 300 299 299 299 298 297 298 295 293 293
294 297 302 300 299 299 299 298 297 291 290 299 300 290 287 297 297 300 303 303 303 305 306 307 308 308 309 310 311 310 311 311 312 312 312 309 308 308 308 309 310 310 310 312 311 311 311 311 311 309 309 310 309 305 303 303 302 302 302 302 302 302 301 300 302 303 302 302 301 299 297 297 298 300 300 302 304 305 305 305 307 306 305 305 304 303 301 300 300 300 300 299 298 298 298 294 295
294 298 301 299 300 299 299 298 298 295 300 301 300 297 290 290 296 301 302 301 302 303 304 306 307 308 310 310 311 311 312 311 312 311 311 310 309 308 307 308 309 310 311 311 311 311 310 310 310 308 309 307 307 304 303 303 302 303 303 305 305 305 305 304 303 302 302 299 298 297 295 295 296 297 298 300 301 301 302 303 306 307 306 305 304 303 302 301 301 302 301 301 301 299 299 297 296
298 298 302 301 299 300 299 299 296 297 295 290 296 299 291 290 298 301 302 299 300 301 303 305 306 309 310 312 312 312 312 313 312 312 310 310 308 308 308 308 310 311 311 310 310 311 310 310 309 309 307 305 304 303 303 303 303 303 305 307 306 307 308 305 301 298 298 298 297 296 295 294 294 295 296 297 298 299 299 302 304 305 306 305 303 304 303 302 302 300 300 301 301 300 300 302 298
298 301 302 301 301 300 300 297 296 295 292 288 294 297 288 289 297 298 300 299 299 300 302 304 306 308 313 312 313 312 311 311 310 309 309 309 309 308 309 309 309 310 311 311 310 310 310 310 309 308 306 304 304 302 302 303 303 303 305 307 308 305 300 299 298 297 297 298 297 296 295 293 293 293 294 296 297 298 299 301 303 304 304 303 302 303 303 302 302 301 302 301 301 301 301 301 299
302 303 301 300 300 299 298 298 296 292 287 289 296 296 293 286 295 297 296 299 300 301 303 304 306 309 310 313 313 313 310 307 307 307 306 308 308 308 308 307 309 310 310 309 309 309 309 309 308 306 307 305 303 302 302 302 303 304 304 305 307 302 301 299 297 297 297 298 297 296 295 294 293 293 293 294 296 297 298 300 301 302 303 302 301 302 301 301 300 300 300 301 301 300 298 299 298
304 300 297 298 296 297 295 293 294 286 285 293 297 297 296 285 292 298 301 303 302 302 302 303 304 306 308 311 312 308 306 305 305 305 305 305 305 306 306 306 308 309 309 308 308 309 309 308 306 306 305 303 302 302 302 302 302 302 303 304 306 302 300 299 298 297 297 298 298 296 295 294 293 293 293 293 294 296 297 298 300 301 300 300 300 301 301 300 300 299 299 298 298 299 299 297 297
301 298 297 289 287 289 285 290 285 286 285 291 292 295 291 291 295 299 302 302 303 306 305 304 305 306 309 310 313 307 305 304 305 304 304 304 304 304 304 305 307 307 307 307 307 307 308 307 305 304 303 303 301 301 301 301 301 301 301 302 302 300 298 299 299 298 298 297 297 296 295 293 293 292 292 292 293 295 296 297 298 298 298 299 300 300 300 299 298 297 297 298 297 297 296 296 295
297 295 293 288 283 283 281 285 289 288 291 292 292 295 289 294 297 301 301 303 304 305 306 309 309 308 309 310 312 306 305 306 306 305 305 304 304 304 304 305 306 307 307 306 306 306 307 306 305 304 303 302 301 301 300 300 300 300 301 301 301 299 298 298 299 298 297 298 297 296 295 295 293 293 292 292 294 295 295 296 297 297 298 298 298 298 297 297 297 296 296 296 296 295 296 296 295
296 300 296 290 288 284 282 285 282 284 287 289 292 287 286 287 294 301 303 305 306 306 307 308 310 311 311 312 310 307 305 306 306 305 305 304 304 304 304 305 306 307 307 306 306 306 306 305 305 304 302 301 301 300 300 299 299 300 300 300 300 298 298 299 299 300 299 298 297 297 296 296 295 294 293 293 294 294 295 295 296 296 296 296 296 296 296 296 296 296 295 295 294 294 295 293 293
298 300 301 294 290 294 285 287 287 286 286 286 287 286 293 294 302 303 305 306 306 306 306 307 307 308 309 310 311 309 307 306 307 306 305 305 305 304 304 305 306 307 307 306 305 305 305 304 304 304 303 301 301 300 300 299 299 299 299 299 299 298 298 299 300 299 299 299 298 297 297 296 296 295 294 293 293 294 294 295 295 295 295 295 295 295 295 295 295 294 292 292 292 294 292 292 291
295 297 291 294 301 296 290 288 288 286 286 283 290 289 294 299 299 301 302 303 303 305 305 305 306 307 308 308 310 310 310 310 308 306 305 305 304 304 304 304 305 306 306 305 305 305 305 304 304 304 304 302 301 300 300 300 300 299 299 298 298 298 298 298 299 298 299 299 298 298 297 296 296 295 293 293 292 293 293 294 293 293 293 294 293 293 293 293 293 292 291 291 290 291 291 290 290
297 290 295 301 303 300 292 284 287 286 283 284 290 287 289 290 287 301 300 299 301 302 303 304 305 306 306 308 309 310 311 312 310 307 306 305 304 304 304 305 306 306 306 306 305 305 305 305 304 304 303 301 300 299 299 300 299 299 298 298 298 297 297 298 299 298 298 298 297 297 297 296 294 294 293 293 292 292 292 292 292 292 292 292 292 292 292 292 292 291 291 290 290 290 289 289 289
299 295 305 293 287 286 292 288 280 281 281 284 288 290 290 292 292 298 298 298 300 301 303 303 304 305 306 307 308 310 311 311 307 305 304 304 303 303 304 304 306 306 306 306 306 305 304 304 305 304 303 302 301 300 299 299 299 299 299 299 298 297 297 297 298 298 297 297 296 296 295 295 294 292 291 291 291 291 290 291 291 291 291 291 291 291 291 291 291 290 289 289 289 289 288 287 288
302 301 297 302 296 290 288 288 287 288 283 283 284 288 286 297 296 299 299 300 301 302 302 303 305 306 306 308 310 311 310 309 307 305 304 303 303 303 303 304 304 305 305 306 305 305 304 304 304 304 304 303 302 300 298 297 298 298 298 298 297 296 296 296 296 296 295 295 295 295 294 293 292 291 291 291 290 290 289 290 290 290 290 290 290 290 290 290 290 289 288 288 288 288 287 286 286
292 292 292 295 293 298 295 295 289 286 284 284 284 283 289 297 301 300 301 302 302 303 303 305 307 307 308 309 310 309 308 308 307 305 303 303 302 302 302 303 305 305 306 305 305 304 304 304 303 303 303 303 301 300 298 297 296 296 297 296 296 295 295 295 295 295 294 294 294 294 293 292 291 290 290 289 289 289 289 289 289 289 289 289 288 288 289 289 288 287 287 287 287 286 285 285 284
295 293 291 293 290 288 286 284 296 290 287 284 284 283 290 300 302 302 302 303 304 305 304 306 309 308 309 311 309 307 308 307 305 304 303 302 301 301 301 302 304 304 304 304 304 304 303 303 303 303 303 303 301 300 298 297 296 296 296 295 295 294 294 293 293 293 293 293 292 292 292 291 290 290 289 289 289 289 289 289 288 288 288 288 288 288 288 288 287 286 286 287 286 285 284 284 283
Wind_Speed
10 5 3 4 5 4 5 5 4 4 4 5 5 4 5 2 4 6 5 6 6 4 4 2 2 2 5 5 7 5 6 7 7 6 5 4 5 7 6 5 6 8 7 7 8 9 8 7 6 5 7 9 9 9 9 9 9 9 9 10 10 10 11 12 13 13 13 13 13 14 15 15 15 15 15 15 16 16 16 16 15 16 16 15 15 15 15 14 14 17 19 21 20 19 19 18 17
6 5 4 3 4 3 3 1 3 4 4 5 5 4 6 6 5 5 6 3 7 5 3 3 3 3 3 5 4 3 6 9 8 7 7 8 9 6 7 4 6 8 8 7 8 8 8 9 5 7 8 8 9 9 9 9 9 8 9 9 10 10 11 11 13 13 12 13 13 14 14 14 14 15 15 15 16 16 15 15 15 15 15 15 16 16 16 16 18 19 19 21 20 19 19 18 18
6 5 4 4 5 5 3 3 3 2 3 5 5 6 5 5 5 5 6 7 8 7 5 5 4 2 0 2 4 5 5 4 8 9 7 10 10 6 6 5 4 7 8 7 7 8 8 8 7 8 7 8 9 10 9 8 9 8 8 9 10 10 11 11 12 13 12 13 13 13 13 14 14 15 15 15 16 15 15 15 15 15 15 15 16 16 17 18 18 19 19 19 19 19 19 18 17
6 4 4 3 4 4 6 4 2 2 5 5 6 6 4 5 7 8 8 9 8 6 5 5 3 3 4 1 5 1 6 5 6 7 7 5 6 6 6 6 4 7 7 5 6 8 8 9 8 8 6 7 9 10 9 9 9 8 8 8 9 10 10 11 12 12 12 13 13 13 13 13 14 15 15 15 15 15 15 15 15 14 15 15 17 17 16 17 17 18 19 19 19 19 18 18 17
5 3 3 5 6 4 3 2 2 3 4 4 6 7 4 5 9 9 9 8 6 3 1 3 2 2 3 3 2 3 6 8 7 5 7 7 5 5 5 5 6 6 7 7 6 9 8 10 7 7 8 6 8 9 9 9 8 7 7 8 8 9 10 11 12 12 12 13 13 13 13 13 14 15 15 15 15 15 15 15 15 15 14 15 17 17 18 17 18 18 18 18 19 19 18 17 17
5 5 3 5 4 3 3 5 3 6 6 5 5 7 5 7 9 9 9 6 5 1 3 2 4 4 4 2 4 2 3 2 5 5 3 7 5 3 4 3 5 7 7 7 7 7 8 8 6 6 8 8 4 7 9 9 8 8 7 7 8 9 9 10 12 12 12 12 13 13 13 13 14 15 15 15 15 15 15 15 15 15 14 15 16 16 17 17 18 18 19 19 19 19 18 17 16
2 4 3 4 2 2 4 3 4 5 5 6 8 7 7 7 9 10 9 6 3 1 1 1 1 3 5 4 4 5 5 4 2 5 6 5 6 3 3 4 5 7 7 6 7 8 10 8 7 6 6 8 6 5 9 9 9 8 7 8 8 8 9 10 11 12 11 13 13 13 13 13 14 14 14 14 15 14 15 15 16 15 15 15 16 16 17 17 17 18 19 19 19 17 16 16 15
2 3 2 5 3 4 1 2 5 4 4 4 4 8 7 8 8 8 9 7 7 5 6 2 3 5 6 2 1 4 5 5 6 6 6 5 6 5 3 5 7 7 8 6 7 7 10 7 6 6 5 6 6 7 9 9 9 8 7 7 8 8 9 10 11 11 12 12 13 13 12 13 14 14 14 14 14 14 15 15 16 15 15 16 16 16 17 17 16 17 17 17 17 17 16 16 16
3 5 1 4 3 1 2 3 5 5 6 3 5 7 6 7 7 7 8 3 7 1 6 5 2 5 6 6 5 6 5 5 6 6 6 6 5 5 3 6 7 6 7 6 6 7 8 7 7 6 5 4 4 5 8 10 9 9 8 8 7 8 9 10 11 12 12 12 13 13 12 13 14 13 14 14 14 14 15 15 15 15 15 16 16 16 16 16 16 16 17 17 17 16 16 15 15
3 4 5 4 1 3 1 3 3 5 5 4 4 7 6 6 6 4 7 5 4 5 4 3 1 3 4 5 6 5 5 6 6 7 6 5 4 5 5 2 3 7 6 6 5 5 6 7 7 6 5 3 2 2 5 7 9 9 9 8 7 8 9 10 10 11 12 12 12 13 13 13 14 14 14 14 14 14 14 14 15 14 15 15 16 15 16 15 15 16 16 16 16 16 15 15 15
5 4 3 4 4 1 3 5 4 5 5 5 5 5 6 6 6 4 4 5 5 4 6 3 4 4 4 3 4 4 6 6 6 7 6 5 4 6 5 3 2 6 6 4 6 5 7 7 7 6 5 3 2 2 4 4 9 9 8 7 7 8 8 9 9 10 11 11 12 13 13 14 14 14 14 14 14 14 14 14 14 14 15 15 15 16 16 15 15 16 16 16 16 15 15 15 15
4 5 4 5 3 2 3 3 3 6 5 6 6 7 5 7 5 6 5 5 6 4 6 8 1 1 4 4 4 6 7 7 5 7 6 5 5 4 4 4 3 3 2 4 5 4 4 7 6 6 3 3 3 1 3 3 4 8 7 7 7 7 8 9 9 10 11 12 12 12 13 14 14 14 14 14 14 14 14 14 14 15 15 15 15 16 16 15 15 16 16 15 15 15 15 15 15
5 3 6 6 2 2 4 1 3 4 5 6 8 6 7 8 7 6 6 3 6 6 6 9 4 3 4 3 5 7 8 8 8 7 6 5 5 5 5 4 3 2 5 5 6 6 4 4 5 7 6 4 2 1 2 4 3 4 7 8 8 7 8 9 9 10 9 12 11 13 13 13 14 14 14 14 13 13 14 14 14 14 15 15 16 15 15 15 16 16 16 15 15 15 15 15 15
4 1 4 3 1 1 2 3 3 3 4 7 6 9 9 6 7 1 5 5 7 5 5 5 2 2 3 4 6 6 7 9 9 7 6 6 5 5 6 6 5 3 2 5 4 5 5 4 4 5 6 6 5 5 5 5 3 3 6 7 7 7 7 9 8 9 10 10 11 10 12 12 12 14 13 13 13 13 13 13 14 14 15 15 15 16 16 16 16 16 16 16 16 16 16 16 15
2 1 4 1 2 3 2 3 3 4 3 10 7 10 8 2 1 3 5 7 6 7 4 1 2 2 3 7 7 6 10 10 9 8 7 6 6 5 6 4 5 4 3 3 4 4 3 3 5 5 5 6 6 6 7 5 5 1 4 7 7 7 7 8 8 10 9 10 11 12 12 11 11 12 11 11 11 11 11 11 12 13 14 15 15 16 16 16 16 16 16 16 16 16 16 16 16
3 3 3 4 4 5 5 3 2 3 5 8 8 8 9 5 2 5 1 6 4 2 2 4 3 2 5 5 8 9 11 10 8 8 8 8 6 5 5 6 6 6 4 5 6 5 5 4 5 5 4 5 6 6 6 6 4 4 1 6 8 7 7 9 9 10 10 10 11 13 13 12 11 11 13 11 10 10 10 11 11 13 14 15 15 15 16 16 16 16 16 16 16 16 16 16 15
2 3 4 4 4 5 5 4 5 3 8 8 8 10 9 7 5 1 3 2 4 5 5 2 4 2 4 5 7 9 10 8 9 9 9 7 6 5 5 6 5 6 4 7 7 7 6 5 4 5 5 4 5 6 6 6 4 2 3 5 6 9 9 9 9 10 10 10 11 12 12 10 10 8 9 10 11 10 10 11 12 14 15 15 15 15 16 16 17 17 17 17 17 16 15 15 14
2 5 5 5 1 4 6 3 5 5 4 8 10 10 8 7 5 4 3 4 6 3 6 5 1 2 5 7 6 8 9 10 10 10 9 8 7 6 6 6 7 6 6 5 5 7 7 5 5 5 6 6 4 4 3 5 5 4 6 6 7 7 8 9 8 8 8 8 10 9 7 8 7 7 9 10 10 11 11 11 12 13 15 15 15 16 16 15 15 15 14 13 11 8 5 6 7
5 4 4 4 2 4 2 2 5 1 2 9 9 9 8 3 10 6 6 7 8 8 8 7 7 7 8 7 8 8 10 10 11 10 11 11 9 10 9 7 8 7 7 6 5 7 5 6 5 6 3 5 6 5 3 5 6 7 7 6 6 8 8 9 8 9 8 9 10 8 6 5 7 7 7 8 9 11 11 11 12 13 15 15 15 16 15 14 14 13 12 11 8 6 6 5 5
0 4 5 2 5 6 6 3 6 6 3 8 9 7 6 3 4 6 7 6 8 10 7 9 9 10 11 10 10 10 10 10 11 12 11 11 10 10 10 11 9 9 8 7 6 4 6 6 5 3 3 5 6 6 5 5 6 7 5 5 6 7 8 7 7 8 7 8 8 8 6 6 6 7 13 15 12 9 9 12 14 15 14 13 13 11 12 12 13 10 8 7 6 6 5 6 5
3 4 3 4 3 3 5 6 7 5 5 5 7 6 8 4 4 6 5 8 8 8 9 8 9 10 13 13 12 11 11 11 12 12 12 12 11 8 9 10 9 7 6 9 6 6 7 6 5 4 3 3 6 4 3 5 6 6 7 6 6 6 8 7 6 7 7 8 7 6 6 6 7 9 9 9 7 8 8 9 8 7 8 8 8 8 6 5 4 4 5 6 6 6 6 6 5
2 2 4 3 2 2 5 5 5 5 4 2 6 8 8 5 2 8 8 8 6 3 6 9 7 3 7 13 13 11 12 12 13 13 13 13 13 11 9 9 8 8 5 5 7 6 6 6 6 5 5 4 7 5 5 4 4 6 7 5 7 7 8 8 7 6 7 8 7 6 7 7 6 9 8 8 8 8 8 7 7 7 7 7 7 6 4 4 5 4 5 6 6 6 6 7 7
3 4 2 4 5 3 3 3 3 2 2 3 6 5 4 6 5 8 10 12 4 6 7 8 8 6 7 9 12 11 12 13 13 14 14 13 13 12 10 8 7 7 6 7 6 6 6 6 6 5 6 6 7 6 5 5 5 3 4 4 6 7 7 7 7 8 7 8 8 7 6 6 7 8 9 8 9 8 8 7 6 7 7 6 6 5 5 5 5 5 5 6 6 6 7 8 8
6 3 4 4 4 5 3 5 3 1 1 2 3 4 5 5 10 3 9 13 13 5 6 6 5 4 4 9 11 12 13 13 13 13 12 12 12 13 10 9 8 7 6 9 7 6 5 6 6 6 5 5 6 8 7 6 5 4 3 1 4 7 7 8 7 6 7 8 8 7 7 7 8 7 8 7 9 8 8 8 7 7 6 6 6 5 6 5 5 5 6 6 6 7 8 8 7
3 5 3 4 2 4 4 4 3 1 1 2 1 4 6 5 5 3 10 14 12 7 5 4 3 4 4 7 9 10 10 11 11 11 9 8 9 9 8 7 7 7 9 10 8 7 7 6 6 7 7 7 6 8 9 8 6 5 3 3 1 3 6 7 7 6 6 6 7 8 7 7 7 8 8 8 8 8 8 8 7 7 7 6 5 6 5 6 5 5 5 5 6 6 7 7 7
4 6 5 5 4 4 4 4 3 2 2 2 4 5 2 2 6 11 15 12 11 6 5 5 4 4 6 7 8 9 10 11 10 10 11 8 6 9 9 8 8 9 8 8 8 7 6 7 7 7 7 6 6 6 7 9 7 6 5 3 2 2 1 2 5 6 5 5 5 6 6 5 5 6 8 8 7 6 8 6 6 6 6 6 5 6 5 5 5 4 5 6 7 6 7 7 7
2 6 5 4 5 4 2 2 4 2 1 3 4 5 4 1 3 7 2 1 6 4 6 5 6 8 9 8 8 9 10 11 12 9 9 9 8 9 10 9 9 9 9 9 8 6 6 5 5 6 6 5 4 6 7 8 8 6 4 4 3 3 3 1 3 5 6 6 5 7 6 2 3 4 4 6 6 7 5 5 6 6 8 6 5 5 5 6 5 5 5 5 6 6 7 6 7
4 5 5 5 4 3 4 3 4 3 3 2 3 6 0 3 3 14 3 2 2 6 8 7 7 8 8 9 8 7 8 8 8 10 12 13 10 10 11 10 11 9 9 9 7 6 5 6 6 6 6 5 6 7 7 8 8 5 4 5 4 4 4 4 3 5 5 5 5 7 7 4 1 4 6 6 8 8 8 7 7 7 7 6 6 5 5 5 5 6 6 5 6 6 6 6 6
4 3 5 6 4 5 6 5 4 3 2 0 1 7 11 9 11 18 9 6 4 4 6 7 7 7 8 7 7 7 8 8 8 9 11 10 9 9 11 10 10 10 7 8 7 6 6 6 5 6 6 5 7 8 7 8 7 5 5 6 5 4 4 4 5 5 5 5 4 6 7 6 5 5 6 6 8 7 8 8 7 7 7 5 5 7 8 6 6 6 7 6 6 6 7 7 6
3 4 5 5 6 8 8 4 3 4 2 1 1 7 5 13 19 11 7 5 4 6 8 8 7 7 7 7 7 7 8 9 10 10 9 9 9 10 11 10 10 9 7 6 7 7 6 4 3 3 4 6 6 7 8 7 5 3 6 7 6 5 4 4 4 4 5 5 5 6 6 6 5 5 8 7 8 8 8 7 8 7 6 7 7 7 6 4 6 7 7 7 6 6 7 6 6
4 2 2 5 5 3 6 5 6 7 4 4 1 8 8 2 7 6 6 5 5 8 8 8 8 8 7 7 7 8 9 10 11 11 10 10 9 8 10 9 10 9 6 7 8 7 7 5 4 3 4 5 2 4 4 7 6 7 6 6 6 5 4 4 4 4 3 4 4 5 6 7 7 8 9 9 8 7 8 8 7 6 6 7 5 4 5 6 5 6 6 7 6 6 7 7 6
2 3 6 5 5 4 6 5 7 7 3 5 5 9 10 12 4 5 4 2 4 7 7 7 7 8 8 8 9 9 9 9 10 11 11 10 9 8 9 10 10 9 8 7 7 7 7 6 6 5 6 7 6 7 6 4 4 7 6 5 4 4 4 4 3 4 4 3 2 2 2 1 7 9 10 9 9 7 8 8 7 8 9 7 6 6 5 7 5 5 6 6 8 7 7 7 6
4 6 2 4 4 3 5 3 1 2 5 5 10 8 6 1 6 4 2 4 4 6 7 7 8 9 9 8 8 8 9 10 9 11 11 11 10 8 9 10 9 10 8 8 8 8 8 7 7 7 8 8 9 9 6 2 4 5 4 4 4 4 3 3 3 3 4 4 3 3 3 3 3 7 10 10 8 8 7 8 8 9 8 8 8 7 6 5 6 6 6 5 6 8 7 8 7
6 4 6 1 5 3 5 5 3 3 5 6 10 10 13 10 3 6 7 7 6 7 10 11 11 10 9 8 9 9 10 10 11 11 13 12 9 11 9 9 9 9 8 8 9 9 8 8 7 8 8 8 9 8 6 5 3 4 4 4 3 4 3 2 2 3 3 3 4 4 4 5 3 5 7 8 7 7 7 8 9 9 7 7 8 6 5 6 6 7 8 6 6 8 7 8 8
5 6 5 5 6 7 7 4 6 5 5 7 8 13 18 15 14 12 8 9 11 13 13 13 12 12 10 10 10 11 10 11 12 11 13 14 12 12 10 10 9 9 8 10 9 9 8 8 8 8 8 9 8 7 5 4 3 3 5 5 4 3 2 2 2 1 2 3 3 5 4 6 4 5 7 8 9 8 8 9 9 9 7 7 7 6 6 7 7 6 8 8 6 6 7 7 8
3 2 3 3 3 4 6 2 6 3 6 7 11 13 14 15 14 12 11 12 12 14 14 12 12 11 12 12 11 11 10 12 10 10 12 13 12 12 11 10 10 9 9 10 11 10 9 9 8 9 9 9 7 6 5 4 3 4 4 4 3 3 2 2 2 2 2 2 3 5 5 6 6 5 6 8 9 9 9 9 10 10 9 9 9 9 7 7 9 9 9 10 9 7 7 7 8
3 2 3 5 5 7 7 5 4 3 4 12 14 15 15 17 16 14 14 12 13 13 14 13 12 12 12 13 13 12 12 12 8 10 12 14 14 12 12 11 11 11 11 11 11 11 11 10 10 11 10 9 6 6 6 6 6 5 4 5 4 4 3 2 2 2 2 2 2 2 3 4 6 7 7 8 9 9 8 8 9 8 8 8 8 9 9 9 9 9 9 7 10 10 8 7 8
3 2 3 5 4 8 3 1 5 3 4 7 9 12 14 15 15 16 15 14 17 17 17 16 15 15 13 15 15 14 12 6 9 9 10 12 11 13 12 11 12 14 12 13 13 12 12 11 12 11 10 8 7 7 6 6 5 6 5 5 5 5 4 3 3 2 2 1 2 2 3 3 3 4 5 5 8 10 9 8 8 8 8 6 6 7 10 9 9 8 9 9 7 9 8 9 8
3 5 2 4 6 5 11 2 5 3 4 9 10 13 12 13 14 16 17 17 16 16 16 15 15 15 14 14 13 13 10 11 10 11 11 11 12 13 12 11 12 13 13 13 12 12 12 12 11 12 11 9 8 7 7 6 6 6 6 6 6 5 3 2 3 3 3 2 1 2 3 2 2 3 4 6 8 9 8 8 7 7 6 7 8 7 9 9 9 11 11 10 9 6 7 7 9
4 5 4 5 3 2 4 5 1 3 4 8 10 15 14 15 19 22 21 19 16 15 16 16 15 17 18 17 13 11 12 11 12 13 13 12 13 13 12 12 12 12 12 12 13 14 12 11 12 13 11 9 8 8 7 6 6 7 7 6 6 4 4 3 5 4 3 3 3 3 2 2 3 4 5 6 6 8 9 8 8 8 8 8 8 9 9 9 9 9 9 9 9 10 8 7 4
6 6 6 6 3 4 5 6 7 10 7 3 9 13 13 12 13 11 14 15 14 15 14 15 15 15 15 11 10 12 14 12 10 11 12 13 13 15 15 13 12 12 13 13 14 14 10 14 13 13 12 11 9 9 8 7 7 7 6 7 6 7 5 4 4 3 4 4 4 3 3 2 2 3 4 5 6 8 8 8 9 9 8 8 7 8 9 9 9 9 9 9 9 9 9 6 3
5 10 9 6 6 8 7 4 8 7 6 3 6 8 4 5 8 7 6 5 8 10 11 13 13 13 12 12 13 12 11 12 12 11 13 14 14 13 13 13 14 12 13 12 12 12 11 12 13 12 11 13 10 10 9 8 7 7 7 7 7 5 5 6 6 8 6 6 6 5 5 2 2 3 3 4 5 6 7 8 9 8 8 7 7 7 8 8 8 9 8 8 8 6 8 8 6
7 2 3 7 7 6 5 6 3 5 5 3 4 4 11 4 10 9 7 7 9 9 11 12 12 11 9 10 9 9 11 11 11 11 9 12 12 13 13 13 13 13 12 11 11 12 12 12 13 12 12 12 9 9 10 8 8 7 9 8 7 7 7 5 5 4 5 5 5 6 5 3 2 3 3 2 3 4 5 5 8 8 8 7 6 7 8 8 8 7 7 7 7 6 6 7 7
5 2 0 1 3 5 5 3 5 9 7 12 7 5 10 13 8 11 12 10 10 9 10 11 11 10 9 8 8 8 8 8 7 9 10 8 10 12 13 13 13 12 12 11 11 12 13 13 13 14 11 9 8 9 10 9 9 9 9 9 8 8 8 8 8 6 5 5 5 5 5 4 3 3 3 3 4 4 4 4 5 7 8 8 7 6 7 7 7 5 6 6 5 6 6 6 6
2 1 1 2 1 1 2 3 5 4 7 8 5 8 4 9 4 10 12 10 9 9 8 10 9 7 6 5 6 6 5 5 5 4 7 8 10 11 11 12 12 12 11 11 11 11 11 12 12 12 11 9 8 10 10 9 8 9 9 8 8 7 7 6 6 5 5 5 6 5 5 5 4 3 3 4 4 4 4 5 5 6 7 7 6 5 6 7 8 8 8 7 6 5 6 4 5
3 3 4 5 3 1 2 3 3 4 4 10 8 8 2 19 5 6 10 7 7 7 7 8 7 7 2 4 4 3 2 3 3 1 2 5 6 8 9 10 12 11 10 10 11 11 11 11 12 14 12 9 9 10 9 9 8 8 9 9 10 7 7 7 6 6 6 6 6 6 5 5 4 4 4 4 5 5 5 5 5 6 6 6 7 6 6 6 7 7 6 5 4 5 3 3 4
9 6 5 3 2 2 2 2 3 3 6 10 10 13 6 11 2 9 8 6 7 5 5 5 6 6 5 3 3 2 4 4 3 2 2 3 5 7 9 11 11 11 10 11 11 11 11 11 14 14 14 10 10 10 10 10 9 9 7 7 7 8 8 8 7 7 6 7 7 6 6 5 5 4 4 4 4 5 5 5 5 5 5 5 5 6 6 6 6 6 5 5 5 4 4 3 4
6 4 4 4 4 3 4 3 2 3 10 0 2 10 13 11 5 4 3 6 5 6 6 6 6 6 5 4 4 4 4 4 5 5 5 6 6 7 9 11 12 12 12 12 11 11 11 12 11 14 14 11 10 10 11 10 9 8 6 8 8 7 7 7 9 9 9 9 8 7 6 5 5 4 5 5 5 6 5 5 5 6 5 5 5 6 6 6 7 6 5 5 5 3 4 4 4
4 6 6 4 3 2 3 4 4 8 9 2 3 4 5 19 15 8 2 3 5 6 5 5 7 6 7 7 5 5 5 5 5 5 6 6 7 8 10 11 12 13 13 14 13 12 11 13 13 14 12 12 11 11 11 10 8 7 6 7 6 6 6 6 8 8 9 8 8 8 8 7 6 5 5 6 6 8 6 6 7 6 6 6 6 7 6 7 7 6 6 5 5 4 4 4 4
8 9 8 5 6 7 8 7 4 4 3 5 4 3 11 10 10 14 19 15 10 8 7 5 5 8 9 10 4 5 4 4 4 5 5 6 7 8 10 11 12 12 13 13 13 12 12 12 14 14 13 11 11 11 11 11 10 9 8 7 7 6 7 6 6 7 8 8 7 9 9 8 8 7 7 6 7 8 6 6 7 7 6 6 6 6 7 6 6 6 6 6 5 4 4 4 5
11 7 9 7 5 4 7 5 7 7 5 2 4 0 4 1 2 2 9 10 12 10 9 7 6 8 10 9 5 4 5 5 5 5 6 7 8 10 10 11 11 12 13 13 12 13 12 13 15 14 13 12 12 12 11 11 10 10 8 7 7 6 7 7 6 6 8 8 8 8 8 7 7 7 7 6 8 8 7 7 7 6 6 6 6 6 5 6 6 6 6 6 5 4 5 5 5
7 6 3 6 11 6 9 2 4 3 5 6 5 6 4 5 6 3 2 4 7 10 9 8 10 11 13 9 6 4 6 6 6 6 7 8 8 9 9 10 11 11 13 12 13 13 13 13 16 15 14 13 12 12 11 11 10 9 9 8 8 8 7 7 6 6 7 7 7 8 8 8 7 7 7 7 8 7 7 8 7 6 6 6 6 6 7 6 6 6 6 5 5 3 5 6 5
7 7 7 6 7 4 5 1 3 1 3 14 3 11 11 10 17 15 12 12 11 8 8 9 11 15 10 10 7 7 5 4 5 6 7 9 9 10 10 11 11 11 12 13 13 13 14 14 15 14 14 12 13 12 12 11 11 10 10 9 9 8 9 9 8 8 9 7 7 7 6 7 7 7 6 7 7 7 7 7 7 7 6 6 6 7 6 6 6 6 6 6 7 5 6 6 5
7 6 6 6 4 5 3 6 1 4 9 9 3 12 12 6 11 8 13 12 11 10 12 13 15 11 9 9 8 7 6 2 4 6 7 8 9 10 10 10 11 12 12 13 14 13 12 13 16 16 14 14 13 12 13 11 11 11 10 11 10 9 8 8 7 8 7 7 7 6 6 5 5 6 6 6 7 7 7 7 7 7 6 6 6 6 6 7 6 5 6 6 6 6 6 5 5
3 0 3 6 4 5 8 3 8 7 9 8 8 10 15 11 14 3 10 12 12 13 14 13 12 10 9 9 9 6 4 3 3 5 5 7 8 9 10 10 10 11 11 11 12 12 12 13 14 16 16 14 14 11 12 9 10 8 8 10 11 9 8 7 6 7 7 7 7 6 6 6 6 6 7 7 7 7 7 6 6 7 6 7 6 6 7 7 6 7 7 6 6 7 7 6 5
2 1 4 2 2 4 7 8 2 2 8 5 11 5 14 5 7 11 10 13 13 13 12 9 10 9 7 5 4 1 1 2 3 4 5 5 6 7 8 9 10 11 11 10 11 11 13 14 15 16 14 13 13 13 12 11 11 8 7 8 8 8 8 8 7 7 7 7 7 7 7 6 6 6 6 7 7 7 8 7 7 7 7 7 7 7 7 7 7 7 8 7 7 7 7 7 6
8 7 8 4 4 3 4 3 6 4 5 7 9 13 11 5 7 3 5 9 9 10 8 7 7 7 5 2 1 1 2 2 3 3 4 5 6 7 8 8 9 9 9 9 10 11 11 12 14 14 15 15 15 13 11 10 8 8 9 10 9 9 9 7 7 7 7 7 7 6 6 6 6 6 7 7 7 7 7 7 8 8 8 8 8 8 7 8 7 8 7 7 8 7 8 7 7
12 14 15 15 11 7 6 7 5 2 4 6 6 15 14 3 5 6 3 5 6 6 1 4 6 5 3 3 3 2 2 1 2 2 3 5 6 7 8 8 8 9 10 12 11 11 12 13 12 13 13 13 14 13 12 10 10 9 10 9 9 8 8 7 8 7 6 7 6 6 6 7 7 6 7 7 8 7 7 7 8 8 8 8 8 9 8 8 8 8 7 6 7 8 8 7 7
Wind_Direction
279 260 284 255 257 258 278 209 236 128 224 109 126 209 82 91 97 145 119 157 160 65 52 111 61 167 338 13 359 19 36 347 26 339 47 84 145 128 125 113 127 161 154 145 139 136 123 119 127 127 122 116 113 110 107 107 104 107 111 113 111 108 104 102 99 96 96 89 82 78 74 71 70 68 67 67 67 67 68 69 70 71 71 71 73 78 84 87 92 82 80 84 81 78 74 71 67
290 297 264 247 248 267 212 105 274 142 123 121 70 75 110 114 197 142 143 74 47 96 110 94 96 66 16 343 331 293 79 48 39 73 81 110 132 132 126 143 147 160 154 146 148 138 128 126 110 126 131 122 117 114 111 107 106 106 111 110 108 105 104 105 102 101 97 91 85 80 77 75 72 70 70 69 68 70 70 70 69 70 72 77 80 82 84 81 80 86 87 81 80 77 75 72 69
310 292 236 220 233 240 299 217 257 210 159 96 88 70 132 156 132 93 78 87 89 104 109 96 98 135 124 218 200 346 76 81 93 75 90 133 143 121 125 121 158 167 154 149 147 136 137 116 105 124 128 127 121 113 114 114 111 107 111 114 113 108 107 106 105 104 100 95 91 86 83 81 76 75 73 71 72 73 73 73 72 71 74 78 80 81 81 80 80 81 82 82 80 78 74 72 70
285 275 275 237 233 200 239 223 292 308 64 88 121 126 159 119 103 97 96 101 104 115 133 135 173 46 307 215 34 155 95 103 52 100 133 160 49 119 130 130 154 173 148 153 154 140 140 113 105 118 120 136 127 124 128 121 118 119 116 115 113 111 108 107 109 106 102 96 92 89 87 82 80 77 75 75 76 77 75 76 76 74 77 78 79 79 80 79 80 80 80 81 80 76 73 72 70
267 246 250 268 284 211 294 6 316 288 97 14 93 141 125 120 116 118 110 111 112 117 202 127 150 76 6 338 3 320 76 88 107 27 87 74 109 94 143 133 168 171 159 163 156 121 99 100 92 105 125 126 136 133 126 125 122 120 119 117 116 114 111 109 109 108 105 99 93 90 86 81 79 77 76 77 78 78 78 77 76 75 75 78 81 83 81 79 78 80 82 81 77 72 70 70 69
260 253 211 260 276 5 261 206 140 69 46 342 121 124 138 117 132 126 127 131 112 169 12 224 349 148 162 66 6 38 5 155 101 90 51 91 96 80 88 171 177 172 164 160 147 132 121 98 100 108 122 119 116 142 131 126 125 123 124 121 123 118 115 113 112 112 107 100 95 90 86 83 80 78 77 78 80 80 79 76 74 76 75 75 82 84 83 83 82 78 76 75 72 71 70 70 68
288 236 187 209 199 227 270 63 88 102 72 341 75 122 133 129 126 136 141 133 150 147 154 342 277 212 166 119 121 68 58 31 173 64 35 103 85 80 156 185 161 163 163 154 142 117 122 109 106 103 105 127 140 166 137 130 128 129 137 136 127 126 122 118 116 114 108 102 97 92 88 85 83 80 79 79 80 81 80 78 76 76 77 78 78 82 83 82 78 73 71 71 73 72 71 69 66
260 275 134 240 149 252 91 86 61 9 101 20 34 107 129 129 140 153 151 183 154 196 172 218 260 286 61 199 156 99 85 57 76 83 97 103 107 116 181 169 163 162 161 154 137 113 118 112 99 106 112 117 138 168 148 139 133 141 144 142 135 134 127 123 121 116 109 106 102 98 94 89 84 82 81 81 81 80 80 79 80 78 79 82 84 82 83 82 80 78 76 75 72 70 69 66 65
233 260 98 265 191 266 175 70 84 70 109 130 109 46 82 135 158 155 160 106 128 119 155 185 175 256 125 152 69 127 98 97 84 95 91 103 114 123 159 182 161 158 162 155 145 143 131 112 107 112 106 117 116 162 159 146 142 144 147 143 143 136 131 126 126 122 115 109 106 103 99 92 88 86 85 84 84 82 81 81 81 81 82 82 81 81 83 83 81 77 74 72 71 69 68 66 64
216 253 187 260 11 186 179 129 164 101 119 111 133 145 135 144 154 209 150 159 146 158 103 84 120 309 136 155 123 168 124 120 117 103 86 100 123 146 150 161 142 152 166 156 155 153 121 123 120 117 118 113 85 59 154 153 144 148 151 148 144 137 131 130 128 124 120 116 112 108 102 95 94 90 86 86 86 84 83 83 82 81 81 82 83 82 82 81 80 76 74 73 71 69 69 67 63
212 187 331 247 214 161 227 119 105 145 130 147 117 138 151 154 166 172 176 130 127 163 127 164 194 215 204 132 71 64 110 127 152 123 108 117 141 155 142 146 187 165 148 189 149 154 137 143 125 126 113 122 123 52 150 149 153 150 150 149 144 140 133 132 131 126 121 116 112 108 101 99 95 92 89 88 87 88 87 86 85 84 83 82 82 82 80 79 79 76 73 72 71 72 71 69 64
223 205 183 242 235 280 72 101 115 112 129 161 151 148 162 163 177 180 166 169 168 172 173 185 89 160 209 172 117 139 133 145 131 108 122 138 144 124 130 140 160 127 111 173 157 125 155 140 155 128 115 112 117 67 26 37 169 149 147 151 143 139 135 133 134 130 128 121 116 108 105 102 99 96 95 93 92 92 91 91 91 90 88 86 85 84 82 80 78 76 74 73 73 75 75 70 63
278 187 208 251 37 279 66 227 124 119 160 190 150 153 153 170 187 183 173 200 165 181 176 185 41 256 220 167 91 129 153 143 109 113 137 153 142 146 151 126 114 90 89 72 111 107 127 161 146 155 142 129 176 130 90 48 20 154 149 144 145 138 134 139 134 124 125 120 116 111 105 102 102 102 100 98 98 98 97 97 97 97 96 93 91 89 87 84 82 80 77 74 73 74 72 68 63
278 236 261 246 28 289 237 69 115 196 189 140 121 139 168 177 196 240 173 192 179 191 58 81 194 290 273 112 148 158 152 132 115 129 144 144 145 154 176 146 134 154 166 119 103 120 101 113 142 152 151 179 184 156 114 68 22 177 140 136 137 134 135 133 130 127 129 122 112 105 104 104 106 106 103 102 101 99 99 99 99 100 99 98 95 92 90 87 84 81 77 73 72 70 68 64 60
279 311 257 298 178 219 112 234 169 219 132 140 135 151 165 187 66 191 210 208 122 64 118 12 3 245 109 225 146 157 140 133 125 137 143 142 148 154 171 155 150 134 170 155 143 140 119 144 148 146 162 178 192 185 176 101 64 35 157 139 136 134 130 126 123 128 121 117 114 109 106 104 101 98 96 92 89 89 89 89 95 97 97 97 94 92 89 87 84 80 77 73 71 68 64 61 57
320 258 235 228 216 231 149 221 165 237 129 139 143 148 170 149 189 204 154 6 75 63 168 168 199 301 348 26 83 92 118 123 126 140 148 144 143 148 168 177 179 170 158 179 168 177 134 146 189 151 160 196 197 183 179 163 119 28 160 149 137 129 122 119 121 125 121 120 118 118 115 115 113 111 114 102 89 88 89 93 93 97 96 95 93 92 91 89 85 82 79 78 74 70 65 59 54
273 275 214 224 217 212 136 208 164 209 101 114 143 159 180 177 153 290 29 287 230 161 198 162 183 167 13 72 98 112 116 118 137 149 154 156 156 158 177 187 169 174 190 193 189 177 182 168 173 190 162 171 186 197 178 163 155 161 150 125 136 125 120 119 118 121 127 129 130 130 136 134 126 127 120 111 107 95 90 93 94 96 96 94 94 93 92 91 90 88 86 85 82 79 73 64 54
244 213 237 223 248 207 135 209 178 47 150 142 168 175 192 174 165 163 166 211 240 133 211 174 131 184 84 111 120 123 131 144 154 164 171 169 176 171 181 194 189 175 169 172 197 187 187 181 165 203 175 187 181 189 186 173 174 203 194 161 156 134 124 129 143 147 154 148 139 150 153 144 144 134 113 114 110 107 96 92 96 97 96 94 94 94 92 91 90 89 86 82 78 72 76 73 66
233 227 242 250 184 61 14 58 68 170 101 151 166 180 202 191 172 151 213 206 203 217 217 202 212 191 134 140 137 150 153 161 165 179 180 183 184 184 184 190 200 186 179 175 171 178 175 172 181 184 230 168 182 188 185 190 181 190 201 173 167 156 149 160 163 164 169 161 167 163 157 163 148 137 131 104 103 93 99 97 97 95 94 94 93 93 93 94 91 89 88 86 89 95 71 69 61
191 281 216 214 63 81 57 35 88 55 2 148 159 169 210 99 188 124 218 230 200 227 224 199 221 207 185 167 160 158 169 171 180 187 190 195 197 189 186 192 199 198 187 186 167 165 172 173 150 150 164 199 203 192 194 204 197 187 194 174 173 173 171 180 171 171 177 172 179 174 177 165 147 99 98 107 112 113 101 92 92 91 91 90 96 93 93 91 91 88 92 94 77 65 69 69 65
106 237 290 43 33 134 84 79 72 58 2 157 158 142 197 155 184 179 198 243 228 237 241 235 211 221 193 167 167 165 174 181 189 196 198 198 206 205 193 191 199 190 191 187 181 183 177 165 157 163 182 195 210 180 181 217 212 193 186 181 197 198 185 184 185 180 176 184 190 181 173 162 147 131 137 141 133 126 126 125 124 123 123 121 122 107 113 134 118 95 91 75 71 62 61 62 62
213 21 30 15 46 93 90 86 53 36 357 136 138 162 199 118 173 214 222 228 233 239 220 221 254 337 146 158 169 170 181 187 192 198 204 201 199 203 202 185 189 198 155 175 186 184 182 165 161 168 183 202 203 188 168 210 257 212 198 189 185 202 194 182 190 178 186 187 188 190 175 160 162 148 163 153 136 143 144 150 143 139 137 133 134 128 122 111 95 84 73 70 66 68 67 62 56
209 123 76 38 14 58 84 112 67 319 121 153 178 181 106 179 216 210 226 235 243 65 40 42 57 67 127 158 159 177 186 192 194 200 204 205 201 203 202 187 171 180 178 202 194 196 182 183 171 177 191 192 207 210 181 181 205 213 221 206 208 207 201 193 190 190 190 190 187 187 175 179 168 172 173 157 150 154 157 155 149 145 144 143 138 129 118 101 88 78 75 77 77 78 74 71 67
292 110 127 70 6 62 57 70 101 87 265 122 52 46 218 200 238 168 228 239 250 87 83 71 73 96 135 161 175 184 190 194 199 202 205 210 206 204 200 198 194 191 192 202 199 196 180 189 184 191 210 209 210 214 213 192 182 184 181 235 231 220 203 201 201 193 188 193 192 192 195 185 182 184 178 165 157 163 162 155 151 144 140 132 120 119 114 101 90 87 87 84 83 77 75 74 73
207 120 119 91 64 76 78 89 121 124 79 14 267 204 220 219 266 35 243 245 247 239 130 124 119 123 168 191 189 195 197 198 201 200 201 212 211 207 202 202 194 196 203 202 198 206 193 195 198 204 211 214 224 225 222 217 199 175 179 204 185 244 210 201 197 184 197 190 191 196 198 197 193 191 181 175 165 167 157 159 149 144 136 121 106 88 103 104 97 99 96 92 87 85 82 77 75
19 101 116 124 96 97 92 116 129 148 119 159 189 223 168 268 346 266 253 242 241 216 157 184 184 191 195 205 202 200 199 199 197 195 198 195 196 193 189 195 196 203 200 201 202 206 201 191 207 216 221 222 223 225 227 222 212 194 188 208 164 171 307 258 183 190 188 190 201 205 199 214 207 185 186 180 158 156 160 144 125 112 100 105 113 119 119 112 109 100 99 98 94 88 85 83 82
92 117 119 118 109 125 163 185 148 166 162 171 241 234 187 116 250 267 180 106 112 156 215 199 208 225 220 216 213 208 205 201 196 191 188 191 191 200 197 200 203 205 200 204 199 201 201 197 204 217 220 222 231 225 225 220 212 197 167 210 211 200 148 351 202 182 178 179 201 205 198 214 262 189 163 169 123 125 119 113 107 103 111 114 116 91 77 94 112 109 103 102 98 96 88 85 84
104 118 115 117 136 111 140 163 143 202 174 183 270 273 336 224 219 243 206 140 161 202 217 205 215 228 226 218 215 208 211 205 194 191 196 194 198 197 197 196 200 200 200 199 194 190 184 198 208 212 216 207 219 226 225 226 208 188 161 212 209 200 164 169 194 199 198 201 192 196 190 175 128 104 119 115 125 125 126 113 114 115 102 96 105 109 103 104 86 82 80 78 88 90 90 82 80
121 190 198 166 169 197 175 195 164 233 172 108 27 278 248 209 230 242 211 146 157 212 224 214 215 223 224 219 208 203 208 203 196 202 208 203 196 194 200 194 192 195 194 194 193 177 186 194 206 205 214 215 213 215 218 221 215 195 159 212 204 194 186 194 198 203 205 199 178 198 187 177 156 132 131 127 126 125 122 122 118 119 119 122 103 97 102 106 104 100 101 100 88 89 89 82 80
168 191 292 183 203 225 169 129 133 216 114 121 224 273 247 211 223 238 132 162 169 235 242 233 226 218 220 214 211 213 208 205 207 210 207 203 198 197 200 191 192 191 187 185 181 183 182 176 179 196 209 210 208 212 220 213 197 180 189 197 192 184 175 186 204 201 191 179 191 191 179 168 160 137 132 129 131 131 128 128 131 126 124 121 125 126 118 115 113 112 117 111 109 105 99 93 93
215 136 251 261 219 188 145 183 147 213 109 187 211 265 270 20 189 134 129 143 214 242 246 241 232 226 218 213 215 220 216 212 215 210 209 203 198 196 197 187 186 187 180 181 184 183 179 169 174 195 201 199 94 212 227 219 193 195 200 204 190 178 172 179 175 166 164 169 177 186 182 160 166 151 146 147 147 138 140 135 130 124 121 126 111 97 111 114 115 125 123 118 112 97 96 95 94
193 195 212 200 240 122 139 143 172 224 143 202 209 259 263 264 110 91 107 167 211 245 256 255 243 228 223 217 220 223 226 212 216 216 207 202 197 193 193 188 182 185 186 179 175 181 181 174 167 197 191 204 197 197 216 210 198 195 188 151 142 154 163 152 148 161 141 128 133 69 42 82 172 155 152 151 152 146 143 132 124 131 129 128 121 119 121 127 130 120 114 128 118 106 107 104 100
207 242 217 185 210 197 169 139 164 19 123 180 214 261 302 100 117 137 163 196 210 242 252 254 254 246 228 222 223 226 227 220 210 212 206 199 201 197 191 190 183 185 184 179 178 175 177 176 175 196 196 196 194 190 196 187 193 188 154 128 126 129 115 120 133 129 142 145 139 121 87 77 69 151 159 157 136 136 132 127 132 134 142 138 134 138 139 130 135 123 121 120 117 119 114 110 105
205 198 250 246 226 232 250 107 181 168 229 213 217 248 251 264 239 160 173 185 197 240 256 261 262 260 241 226 222 223 223 221 215 207 203 198 195 196 191 189 182 180 182 181 179 176 179 176 180 190 193 193 193 187 184 170 166 144 126 105 89 95 74 99 108 126 138 136 144 130 131 111 129 120 126 133 125 124 126 130 136 142 138 135 133 131 124 130 131 131 125 119 122 123 123 121 113
206 186 222 231 231 248 280 264 132 190 180 253 238 237 260 263 267 268 240 201 229 253 260 262 261 258 251 230 227 223 222 219 220 208 198 194 190 188 188 184 181 181 181 182 176 177 177 175 178 182 196 188 186 179 149 136 123 100 89 98 95 94 83 53 50 99 93 132 139 133 136 128 136 134 132 129 128 133 133 138 141 144 133 130 120 119 128 137 132 129 129 127 127 121 123 119 115
13 199 247 304 257 210 236 118 123 231 227 237 241 250 263 266 265 258 255 251 230 250 260 261 257 255 252 243 230 226 221 227 216 206 191 185 185 181 183 180 181 183 181 181 179 179 180 173 180 182 193 189 181 159 158 154 146 143 137 112 114 109 96 91 43 43 31 54 101 139 146 135 141 140 135 134 136 136 142 150 149 148 141 142 143 145 154 147 143 136 135 137 129 116 111 117 123
36 337 297 271 281 281 277 134 113 144 275 255 255 258 260 268 271 272 271 268 264 252 254 254 248 246 244 239 235 229 224 226 196 192 179 178 178 178 180 179 180 182 186 182 182 184 183 176 180 189 190 187 178 170 168 165 162 139 136 163 151 137 125 99 82 61 32 41 14 57 98 115 138 144 147 148 141 135 138 143 144 147 146 149 153 152 151 143 146 146 138 137 136 131 129 136 130
268 266 261 253 232 268 301 22 142 154 237 278 274 270 262 264 268 272 272 265 255 253 256 253 251 245 244 240 235 227 226 198 155 164 169 170 176 178 179 181 181 182 189 186 186 184 181 178 184 190 190 185 190 184 164 173 170 170 159 157 142 141 132 149 131 128 105 21 3 57 69 82 116 138 146 147 148 151 145 144 146 148 150 150 131 129 140 143 152 148 143 138 149 140 140 152 150
212 254 237 267 258 271 278 247 120 176 216 266 273 276 269 264 264 264 260 254 251 250 250 256 259 259 253 248 244 238 216 195 180 188 175 178 178 180 184 186 188 191 184 187 186 181 182 183 184 191 193 184 187 180 170 177 175 171 164 146 144 120 90 98 128 116 133 141 111 56 80 93 124 145 152 153 155 154 151 143 141 140 147 142 131 136 147 156 162 158 158 150 149 144 139 158 173
230 213 227 242 57 340 291 113 347 185 229 297 314 293 273 256 248 248 249 250 257 257 257 257 252 255 254 252 250 244 236 211 192 190 182 178 180 183 188 190 190 189 185 185 186 186 184 186 184 188 191 182 181 175 179 164 116 85 73 91 96 110 140 111 105 122 135 147 142 120 86 120 161 160 162 153 151 149 149 146 141 148 153 159 152 151 163 165 164 165 162 159 151 145 157 165 192
212 236 243 257 237 256 250 316 322 298 237 351 286 279 271 227 233 237 241 241 245 252 254 252 248 246 253 260 260 252 251 239 222 193 176 176 181 190 192 191 185 190 189 188 186 186 185 185 182 185 187 186 183 170 165 123 114 103 99 88 90 94 90 116 126 151 165 164 135 143 136 96 145 151 155 157 155 151 148 148 149 150 157 166 161 159 165 169 167 168 162 159 167 155 152 154 197
207 211 229 252 282 289 290 306 338 308 271 115 340 315 298 121 185 216 140 167 213 231 235 240 244 243 237 239 241 241 237 241 237 217 184 181 186 185 188 188 190 191 193 188 186 187 182 181 182 181 185 190 184 168 153 148 149 144 142 147 155 160 154 164 178 170 173 169 168 138 110 102 120 125 135 145 159 151 135 145 149 156 154 161 164 161 162 158 169 167 168 162 161 159 150 151 168
249 156 223 251 262 298 283 285 325 276 285 102 351 345 288 225 252 230 204 209 237 252 238 248 253 254 242 229 231 228 228 228 225 228 193 179 183 181 186 189 191 191 194 183 184 186 182 181 180 176 187 188 175 163 155 155 155 160 166 168 163 165 161 178 172 166 158 157 143 141 124 115 112 128 105 125 129 128 116 129 150 155 162 167 159 164 167 168 168 166 159 166 162 154 154 163 169
231 54 42 54 233 226 260 267 263 270 316 291 198 219 284 288 238 225 217 226 243 245 246 255 258 256 243 234 229 228 225 220 212 211 212 190 177 183 186 188 190 193 185 183 183 183 183 179 173 176 181 178 166 160 164 170 164 171 173 174 174 177 179 168 168 158 147 135 135 131 127 127 121 121 129 130 144 130 117 132 152 159 165 172 169 171 167 166 159 155 161 162 161 163 170 172 166
59 109 31 95 156 269 213 258 274 287 324 293 160 188 231 271 80 177 177 208 215 235 249 258 266 264 260 228 228 230 230 230 213 196 213 197 184 184 186 185 189 186 184 180 181 180 177 178 176 175 177 173 159 163 171 176 174 173 179 180 175 187 175 155 138 126 134 143 136 136 135 136 139 131 141 136 148 147 137 154 160 160 164 163 170 169 162 163 158 152 161 167 164 162 180 176 161
127 132 92 92 96 111 219 276 270 286 304 267 157 184 257 282 189 161 170 213 191 216 238 249 261 283 164 212 223 202 153 100 85 135 197 199 185 183 186 181 182 186 182 175 178 180 178 181 184 176 179 174 164 171 177 177 176 172 186 190 182 160 137 131 139 142 146 152 148 149 145 151 155 154 148 155 154 159 161 161 165 169 165 160 166 157 148 150 147 149 152 148 145 151 147 146 163
132 150 126 139 152 179 197 239 270 291 248 262 173 179 200 276 191 152 157 194 180 200 222 231 256 268 276 253 156 136 124 112 116 131 124 159 169 175 176 181 183 178 176 178 178 178 181 188 193 180 191 175 168 173 176 180 184 187 192 189 180 150 153 145 146 150 154 160 159 161 162 164 162 163 160 164 165 155 164 162 168 165 161 158 157 139 148 146 141 141 141 133 132 140 141 111 96
166 166 185 184 216 193 227 212 164 235 261 357 132 192 197 237 135 176 200 136 180 197 209 237 267 274 283 282 125 107 105 116 139 151 158 160 157 173 178 183 182 178 176 178 179 180 183 187 186 182 189 173 166 172 179 182 182 184 182 188 192 166 152 160 161 164 166 167 166 165 165 160 164 160 165 160 160 159 156 162 161 156 159 159 158 156 156 152 145 139 138 142 135 121 114 133 126
226 184 186 210 230 181 228 179 219 208 250 115 93 84 283 239 247 280 258 203 196 229 246 258 276 280 280 284 123 116 120 145 161 167 166 172 177 177 184 187 182 184 185 182 180 179 185 194 192 181 183 175 171 171 180 180 178 180 177 182 180 156 160 169 170 166 164 165 167 165 169 172 163 165 175 168 165 161 161 158 162 163 160 164 159 156 149 146 142 143 144 141 135 141 148 144 142
199 197 179 191 237 234 252 229 238 278 227 125 160 127 254 289 282 228 243 230 226 215 224 247 258 270 275 272 130 124 150 166 172 169 173 184 185 186 189 189 189 189 187 184 181 182 186 194 201 186 180 174 169 174 181 183 184 184 187 182 178 158 169 174 178 168 169 169 171 172 176 175 170 172 167 172 158 161 163 159 161 163 161 153 148 140 136 138 142 144 139 135 135 137 127 119 108
201 202 190 207 220 224 246 228 237 241 275 129 207 173 242 358 42 23 226 238 221 221 224 224 243 259 261 264 122 157 170 192 175 179 188 192 193 189 189 193 193 193 189 187 185 185 187 195 202 188 177 178 174 176 178 183 183 187 186 181 175 168 173 182 187 178 174 175 171 172 179 173 168 161 163 151 146 161 152 153 159 152 146 145 140 132 130 135 139 131 133 127 123 120 115 110 111
193 214 236 248 238 245 256 318 303 337 340 286 173 225 274 248 98 148 114 141 196 219 222 227 237 249 251 270 262 196 211 211 180 190 192 197 194 191 191 195 195 194 191 187 189 188 190 195 203 192 179 178 178 178 182 185 187 182 184 181 181 172 177 180 184 175 180 178 172 175 176 169 168 149 141 136 156 157 153 152 147 143 140 140 141 139 143 142 136 129 123 123 113 111 119 116 116
174 160 213 210 17 232 266 184 116 98 285 258 202 264 248 267 263 222 186 197 207 197 213 225 235 241 251 262 274 270 261 188 177 189 194 196 191 194 196 193 194 194 193 190 190 190 192 193 199 190 185 179 180 184 187 189 187 183 186 183 182 178 182 183 182 172 170 170 169 174 172 168 149 136 130 147 152 155 151 148 145 142 145 145 142 144 144 136 137 132 134 129 128 128 123 124 125
108 213 204 68 48 4 226 259 199 233 249 271 161 252 278 282 298 142 187 208 212 208 223 227 234 241 249 248 254 257 265 257 179 193 200 196 191 193 194 197 197 196 193 192 191 189 192 198 204 198 184 183 180 182 189 188 185 186 186 189 186 182 183 182 181 167 164 161 164 168 156 150 145 130 130 143 149 146 144 147 144 146 146 146 146 145 143 141 140 129 127 132 134 134 126 117 117
297 218 37 178 208 214 209 229 251 250 251 278 255 261 261 231 249 213 187 186 206 214 220 229 235 233 230 244 253 255 240 173 175 198 196 196 195 196 195 197 199 198 194 192 190 189 192 200 204 203 193 187 184 184 187 184 186 185 188 187 185 180 179 177 175 164 161 165 166 163 156 143 116 127 136 142 146 146 147 150 145 146 149 150 149 146 144 146 142 132 137 132 140 141 134 129 126
280 286 261 328 313 244 193 200 276 252 266 265 276 275 275 181 230 237 227 180 192 202 211 210 234 228 221 224 249 238 190 225 214 209 202 200 203 201 197 196 196 196 194 193 190 190 195 199 203 204 195 189 188 185 182 185 185 172 169 171 175 171 171 171 164 160 165 170 166 161 146 136 146 138 139 146 151 153 154 152 153 149 150 151 152 147 152 150 145 144 147 144 149 146 134 134 131
196 217 230 175 209 26 334 254 219 236 261 262 287 290 263 275 209 191 216 198 198 198 180 186 210 223 207 188 126 219 252 227 220 213 196 194 196 195 196 197 196 195 193 190 193 193 194 196 204 199 193 191 192 186 179 185 172 173 174 181 175 171 173 168 157 166 169 167 160 156 152 147 136 147 142 151 153 155 157 156 154 156 155 155 152 154 159 155 151 149 143 142 147 146 142 135 132
192 190 205 196 178 190 207 241 186 228 228 244 264 264 277 127 49 129 124 160 192 155 200 224 175 176 170 164 179 193 243 229 204 197 190 197 189 188 189 192 194 195 192 191 192 191 193 197 200 198 199 198 192 187 179 172 174 171 176 177 169 164 166 159 163 164 166 159 154 154 150 139 153 145 152 155 153 153 156 156 156 154 153 151 155 160 159 159 152 148 138 145 151 149 143 135 135